DW9106 Madrid ES current weather conditions

sailwx.info

Wind from 252

Air temperature 26.1° C
Dewpoint 5.6° C

Last reported at 2014-Jul-25 22:44 UTC.
Time now 2014-Jul-25 23:07 UTC

Location: N 40°23' W 003°38'.
View on Google Maps.

See reports from other nearby stations

  
Tides and Currents Weather Stations Pressure Air Temp Water Temp Dewpoint Dewpoint Depression Visibility Wind Speed Wind Dir Waves Ship Positions
date/time (UTC)wind fromknots sea level pressurealtimeterstation pressurevisibilityair tempwater tempwave heightnotes
2014-Jul-25 22:44 252 26.1
2014-Jul-25 22:29 252 26.1
2014-Jul-25 21:59 252 27.8
2014-Jul-25 21:44 252 28.3
2014-Jul-25 21:29 319 2 gusting 6 28.3
2014-Jul-25 21:14 235 1 gusting 6 28.9
2014-Jul-25 20:59 267 2 gusting 7 28.9
2014-Jul-25 20:45 234 0 gusting 4 29.4
2014-Jul-25 20:29 265 29.4
2014-Jul-25 20:14 254 1 gusting 3 29.4
2014-Jul-25 19:59 249 0 gusting 3 30.0
2014-Jul-25 19:44 261 1 gusting 4 30.6
2014-Jul-25 19:29 261 30.6
2014-Jul-25 19:14 237 1 gusting 5 31.1
2014-Jul-25 18:59 252 1 gusting 8 31.7
2014-Jul-25 18:44 310 2 gusting 7 32.2
2014-Jul-25 18:29 266 2 gusting 6 32.8
2014-Jul-25 18:14 273 2 gusting 6 32.8
2014-Jul-25 17:59 274 2 gusting 6 33.3
2014-Jul-25 17:44 249 3 gusting 9 33.3
2014-Jul-25 17:29 271 1 gusting 7 33.9
2014-Jul-25 17:14 237 1 gusting 8 33.9
2014-Jul-25 16:59 163 1 gusting 12 33.9
2014-Jul-25 16:44 224 4 gusting 8 33.3
2014-Jul-25 16:29 277 3 gusting 12 33.9
2014-Jul-25 16:14 225 2 gusting 6 33.9
2014-Jul-25 15:59 107 4 gusting 10 33.9
2014-Jul-25 15:44 234 3 gusting 11 33.9
2014-Jul-25 15:29 259 3 gusting 9 33.9
2014-Jul-25 15:14 204 2 gusting 9 33.3
2014-Jul-25 14:59 147 33.9
2014-Jul-25 14:44 338 3 gusting 7 33.3
2014-Jul-25 14:29 232 2 gusting 7 33.9
2014-Jul-25 14:14 262 1 gusting 6 33.9
2014-Jul-25 13:59 283 0 gusting 4 32.8
2014-Jul-25 13:44 252 3 gusting 7 32.8
2014-Jul-25 13:29 188 3 gusting 10 33.3
2014-Jul-25 13:14 298 1 gusting 10 32.2
2014-Jul-25 12:59 279 1 gusting 6 32.2
2014-Jul-25 12:44 283 3 gusting 7 32.2
2014-Jul-25 12:28 253 0 gusting 7 31.7
2014-Jul-25 12:13 219 4 gusting 9 31.7
2014-Jul-25 11:58 181 2 gusting 6 31.7
2014-Jul-25 11:43 223 0 gusting 9 31.1
2014-Jul-25 11:28 162 3 gusting 10 30.6
2014-Jul-25 11:13 227 3 gusting 7 30.6
2014-Jul-25 10:58 156 0 gusting 4 30.0
2014-Jul-25 10:43 261 1 gusting 6 29.4
2014-Jul-25 10:28 245 2 gusting 8 29.4
2014-Jul-25 10:13 285 0 gusting 4 28.9
2014-Jul-25 09:58 116 1 gusting 6 28.3
2014-Jul-25 09:43 176 0 gusting 5 27.8
2014-Jul-25 09:28 096 1 gusting 5 27.8
2014-Jul-25 09:13 144 0 gusting 3 26.7
2014-Jul-25 08:58 010 26.1
2014-Jul-25 08:43 161 0 gusting 3 26.1
2014-Jul-25 08:28 169 0 gusting 2 25.6
2014-Jul-25 08:13 213 0 gusting 2 25.0
2014-Jul-25 07:58 085 0 gusting 2 24.4
2014-Jul-25 07:43 080 23.9
2014-Jul-25 07:27 084 22.8
2014-Jul-25 07:12 123 0 gusting 1 22.2
2014-Jul-25 06:57 123 21.7
2014-Jul-25 06:42 128 21.7
2014-Jul-25 06:27 147 21.1
2014-Jul-25 06:12 101 21.1
2014-Jul-25 05:57 138 0 gusting 3 20.6
2014-Jul-25 05:42 194 20.0
2014-Jul-25 05:27 194 20.0
2014-Jul-25 05:12 194 20.0
2014-Jul-25 04:57 194 20.0
2014-Jul-25 04:42 191 20.6
2014-Jul-25 04:27 188 20.6
2014-Jul-25 03:57 215 21.1
2014-Jul-25 03:42 248 21.7
2014-Jul-25 03:27 248 21.7
2014-Jul-25 03:12 248 21.7
2014-Jul-25 02:57 248 22.2
2014-Jul-25 02:42 248 22.8
2014-Jul-25 02:27 248 22.8
2014-Jul-25 02:12 228 23.3
2014-Jul-25 01:57 194 23.3
2014-Jul-25 01:42 194 23.9
2014-Jul-25 01:27 158 23.9
2014-Jul-25 01:11 071 23.9
2014-Jul-25 00:56 071 24.4
2014-Jul-25 00:41 071 0 gusting 1 25.0
2014-Jul-25 00:26 278 25.0
2014-Jul-25 00:11 249 25.6
2014-Jul-24 23:56 246 26.1
2014-Jul-24 23:41 268 26.7
2014-Jul-24 23:26 230 26.7
2014-Jul-24 23:11 281 0 gusting 7 27.2
2014-Jul-24 22:56 271 1 gusting 4 27.2
2014-Jul-24 22:41 247 0 gusting 6 27.8
2014-Jul-24 22:26 267 0 gusting 7 27.8
2014-Jul-24 22:11 277 2 gusting 5 27.8
2014-Jul-24 21:56 292 28.3
2014-Jul-24 21:41 268 1 gusting 5 28.9
2014-Jul-24 21:26 274 1 gusting 6 28.9
2014-Jul-24 21:11 271 1 gusting 7 29.4
2014-Jul-24 20:56 290 2 gusting 6 29.4
2014-Jul-24 20:41 250 2 gusting 8 30.0
2014-Jul-24 20:26 252 3 gusting 9 30.0
2014-Jul-24 20:11 128 2 gusting 9 30.6
2014-Jul-24 19:56 265 2 gusting 6 30.6
2014-Jul-24 19:41 290 2 gusting 9 31.1
2014-Jul-24 19:26 140 1 gusting 7 31.1
2014-Jul-24 19:11 273 1 gusting 7 31.7
2014-Jul-24 18:56 282 3 gusting 11 31.7
2014-Jul-24 18:41 226 2 gusting 13 32.2
2014-Jul-24 18:26 264 4 gusting 11 32.2
2014-Jul-24 17:56 289 2 gusting 9 33.3
2014-Jul-24 17:41 057 1 gusting 7 33.9
2014-Jul-24 17:26 298 5 gusting 11 33.9
2014-Jul-24 17:11 277 2 gusting 6 33.9
2014-Jul-24 16:56 156 0 gusting 5 33.9
2014-Jul-24 16:41 223 2 gusting 7 33.9
2014-Jul-24 16:26 225 2 gusting 10 33.9
2014-Jul-24 16:11 220 0 gusting 7 33.9
2014-Jul-24 15:56 292 3 gusting 8 34.4
2014-Jul-24 15:41 299 1 gusting 9 34.4
2014-Jul-24 15:26 211 3 gusting 9 35.0
2014-Jul-24 15:11 216 0 gusting 8 34.4
2014-Jul-24 14:56 163 3 gusting 9 34.4
2014-Jul-24 14:41 190 4 gusting 11 35.0
2014-Jul-24 14:26 245 1 gusting 5 34.4
2014-Jul-24 14:11 262 4 gusting 11 34.4
2014-Jul-24 13:56 197 0 gusting 6 34.4
2014-Jul-24 13:41 173 2 gusting 9 33.9
2014-Jul-24 13:26 226 2 gusting 6 34.4
2014-Jul-24 13:11 159 3 gusting 9 34.4
2014-Jul-24 12:56 355 2 gusting 5 33.9
2014-Jul-24 12:41 142 5 gusting 9 33.9
2014-Jul-24 12:26 323 0 gusting 6 33.3
2014-Jul-24 12:10 174 0 gusting 5 33.3
2014-Jul-24 11:55 136 2 gusting 6 32.8
2014-Jul-24 11:40 227 3 gusting 8 32.2
2014-Jul-24 11:25 164 1 gusting 5 32.2
2014-Jul-24 11:10 291 3 gusting 7 32.8
2014-Jul-24 10:55 072 0 gusting 4 32.2
2014-Jul-24 10:40 023 31.1
2014-Jul-24 10:25 190 1 gusting 4 30.0
2014-Jul-24 10:10 241 1 gusting 4 30.0
2014-Jul-24 09:55 034 0 gusting 4 30.0
2014-Jul-24 09:40 257 1 gusting 3 29.4
2014-Jul-24 09:25 082 1 gusting 4 28.3
2014-Jul-24 09:10 231 0 gusting 2 28.9
2014-Jul-24 08:55 164 0 gusting 4 27.8
2014-Jul-24 08:40 360 1 gusting 3 27.2
2014-Jul-24 08:25 045 2 gusting 4 26.1
2014-Jul-24 08:10 044 0 gusting 6 25.6
2014-Jul-24 07:55 039 1 gusting 6 24.4
2014-Jul-24 07:39 076 2 gusting 5 24.4
2014-Jul-24 07:24 051 1 gusting 5 23.9
2014-Jul-24 07:09 053 1 gusting 4 23.3
2014-Jul-24 06:54 065 1 gusting 3 23.3
2014-Jul-24 06:39 065 1 gusting 4 22.8
2014-Jul-24 06:24 076 2 gusting 6 22.8
2014-Jul-24 06:09 061 1 gusting 5 22.8
2014-Jul-24 05:54 042 0 gusting 2 22.8
2014-Jul-24 04:24 020 5 gusting 9 23.3
2014-Jul-24 04:09 059 3 gusting 7 23.9
2014-Jul-24 03:54 022 1 gusting 7 23.9
2014-Jul-24 03:39 036 1 gusting 3 23.9
2014-Jul-24 03:09 063 23.9
2014-Jul-24 02:53 040 23.9
2014-Jul-24 02:38 061 24.4
2014-Jul-24 02:23 061 24.4
2014-Jul-24 02:08 291 24.4
2014-Jul-24 01:53 038 25.0
2014-Jul-24 01:38 032 0 gusting 3 25.0
2014-Jul-24 01:23 032 0 gusting 3 25.0
2014-Jul-24 01:08 055 25.0
2014-Jul-24 00:53 053 0 gusting 4 25.6
2014-Jul-24 00:38 069 25.6
2014-Jul-24 00:23 061 0 gusting 4 26.1
2014-Jul-24 00:08 237 0 gusting 3 26.1
2014-Jul-23 23:53 180 26.7
2014-Jul-23 23:38 049 0 gusting 2 27.2
2014-Jul-23 23:23 286 1 gusting 5 27.2
2014-Jul-23 23:08 312 27.2